Weather History for K2WX - November, 2013

Change the Weather History Date:

Sunday, November 17, 2013

  Actual Average Record
Temperature  
Mean Temperature 32 °F 31 °F  
Max Temperature 38 °F 41 °F 68 °F (2001)
Min Temperature 25 °F 20 °F 0 °F (2014)
Degree Days  
Heating Degree Days 33 34  
Month to date heating degree days 498 507  
Since 1 July heating degree days 1328 1408  
Cooling Degree Days 0 0  
Month to date cooling degree days 0 0  
Year to date cooling degree days 587 513  
Moisture  
Dew Point 25 °F    
Average Humidity 73    
Maximum Humidity 92    
Minimum Humidity 54    
Precipitation  
Precipitation 0.00 in 0.00 in 0.07 in (2010)
Month to date precipitation 0.00 0.29  
Year to date precipitation 12.15 14.21  
Sea Level Pressure  
Sea Level Pressure 29.74 in    
Wind  
Wind Speed 14 mph (WNW)    
Max Wind Speed 31 mph    
Max Gust Speed 37 mph    
T = Trace of Precipitation, MM = Missing Value Source: NWS Daily Summary

Daily Weather History Graph

Daily Weather History Graph

Search for Another Location

Airport or City:

Trip Planner

Search our weather history database for the weather conditions in past years. The results will help you decide how hot, cold, wet, or windy it might be!

Date:

Astronomy

Nov. 17, 2013 Rise Set
Actual Time 6:56 AM MST 4:21 PM MST
Civil Twilight 6:24 AM MST 4:53 PM MST
Nautical Twilight 5:48 AM MST 5:29 PM MST
Astronomical Twilight 5:12 AM MST 6:04 PM MST
Moon 4:40 PM MST (11/17) 6:52 AM MST (11/17)
Length of Visible Light 10h 29m
Length of Day
9h 24m
Full, 100% of the Moon is Illuminated
Nov 17
Full
Nov 25
Last Quarter
Dec 2
New
Dec 9
First Quarter
Dec 17
Full

Hourly Weather History & Observations

Time (MST) Temp. Windchill Dew Point Humidity Pressure Visibility Wind Dir Wind Speed Gust Speed Precip Events Conditions
12:56 AM 26.1 °F 20.5 °F 23.0 °F 88% 29.38 in - West 4.6 mph - N/A   Unknown
1:56 AM 30.0 °F 25.2 °F 24.1 °F 79% 29.38 in - WNW 4.6 mph - N/A   Unknown
2:56 AM 26.1 °F 16.8 °F 21.9 °F 84% 29.42 in - NW 9.2 mph - N/A   Unknown
3:56 AM 26.1 °F 16.8 °F 24.1 °F 92% 29.45 in - WNW 9.2 mph - N/A   Unknown
4:56 AM 30.9 °F 20.7 °F 27.0 °F 85% 29.49 in - WNW 13.8 mph - N/A   Unknown
5:56 AM 32.0 °F 20.8 °F 30.0 °F 92% 29.53 in - NW 17.3 mph - N/A   Unknown
6:56 AM 33.1 °F 21.9 °F 30.9 °F 92% 29.59 in - WNW 18.4 mph 26.5 mph N/A   Unknown
7:56 AM 32.0 °F 19.8 °F 30.0 °F 92% 29.65 in - NW 20.7 mph - N/A   Unknown
8:56 AM 32.0 °F 17.4 °F 28.0 °F 85% 29.70 in - WNW 31.1 mph 36.8 mph N/A   Unknown
9:56 AM 30.9 °F 18.1 °F 27.0 °F 85% 29.73 in - WNW 21.9 mph 33.4 mph N/A   Unknown
10:56 AM 32.0 °F 19.2 °F 26.1 °F 79% 29.76 in - WNW 23.0 mph - N/A   Unknown
11:56 AM 34.0 °F 21.8 °F 25.0 °F 70% 29.79 in - WNW 23.0 mph 28.8 mph N/A   Unknown
12:56 PM 37.0 °F 25.1 °F 25.0 °F 62% 29.81 in - West 26.5 mph - N/A   Unknown
1:56 PM 37.9 °F 27.3 °F 23.0 °F 55% 29.82 in - WNW 21.9 mph - N/A   Unknown
2:56 PM 37.0 °F 26.4 °F 23.0 °F 57% 29.86 in - West 20.7 mph - N/A   Unknown
3:56 PM 34.0 °F 25.5 °F 23.0 °F 64% 29.90 in - West 11.5 mph - N/A   Unknown
4:56 PM 28.9 °F 21.9 °F 21.9 °F 75% 29.92 in - WNW 6.9 mph - N/A   Unknown
5:56 PM 28.9 °F 21.9 °F 23.0 °F 78% 29.91 in - WNW 6.9 mph - N/A   Unknown
6:56 PM 28.0 °F 19.3 °F 23.0 °F 81% 29.93 in - West 9.2 mph - N/A   Unknown
7:56 PM 28.9 °F 21.9 °F 23.0 °F 78% 29.94 in - WSW 6.9 mph - N/A   Unknown
8:56 PM 30.0 °F 24.1 °F 24.1 °F 79% 29.96 in - West 5.8 mph - N/A   Unknown
9:56 PM 30.9 °F - 23.0 °F 72% 29.97 in - Calm Calm - N/A   Unknown
10:56 PM 28.9 °F 21.9 °F 21.9 °F 75% 29.99 in - WNW 6.9 mph - N/A   Unknown
11:56 PM 28.9 °F 21.9 °F 21.9 °F 75% 30.00 in - West 6.9 mph - N/A   Unknown